User: anonymous   Login
Location: Unspecified
(0.0000°N, 0.0000°E)
Time: 00:15:43
(UTC+00:00)
Language:

KITSAT 1 - Orbit

View from above orbital plane
View from above orbital plane
View from above satellite
View from above satellite

Ground track
Ground track

The orbit data is extracted from the following two-line orbital elements,

1 22077U 92052B   17328.52723116 -.00000063  00000-0 -34416-5 0  9998
2 22077  66.0856 350.6973 0015026 286.7500 228.5709 12.86520388188010
Epoch (UTC): 24 November 2017 12:39:12
Eccentricity: 0.0015026
inclination: 66.0856°
perigee height: 1304 km
apogee height: 1327 km
right ascension of ascending node: 350.6973°
argument of perigee: 286.7500°
revolutions per day: 12.86520388
mean anomaly at epoch: 228.5709°
orbit number at epoch: 18801

The dashed part of the orbit path shows where the satellite is in the earth's shadow,  

DLR